GSAT0220 (GALILEO 24)

Last updated on Wed Sep 09 2026 00:02:49 GMT+0000 (Coordinated Universal Time)

1 43567U 18060D 26247.32877242 -.00000087 00000+0 00000+0 0 9990 2 43567 57.1401 339.6499 0003691 269.6234 90.3748 1.70475864 50524
UTC large
Height (km)
Speed (km/s)
/
Latitude / Longitude
Inclination (degrees)
Orbital Period (minutes)
Azimuth
Elevation
Range (km)
Doppler Factor

Next 0 passes for location: London (51.5072 / 0.1276)

No passes found over London.
GSAT0220 (GALILEO 24)